User: anonymous   Login
Location: PACMO
(41.3967°N, 90.3760°W)
Time: 02:00:53
(UTC-05:00)
Language:

BREEZE-M DEB (TANK) - Orbit

View from above orbital plane
View from above orbital plane
View from above satellite
View from above satellite

Ground track
Ground track

The orbit data is extracted from the following two-line orbital elements,

1 31863U 07032B   14302.42867550  .00001332  00000-0  81240-3 0  3137
2 31863 045.9650 102.4951 4994782 227.0271 078.6343 05.50840460146439
Epoch (UTC): 29 October 2014 10:17:17
Eccentricity: 0.4994782
inclination: 45.9650°
perigee height: 400 km
apogee height: 13929 km
right ascension of ascending node: 102.4951°
argument of perigee: 227.0271°
revolutions per day: 5.50840460
mean anomaly at epoch: 78.6343°
orbit number at epoch: 14643

The dashed part of the orbit path shows where the satellite is in the earth's shadow,  

DLR